Regional Weather Roundup
Issued by NWS

Home | Current Version | Previous Version | Text Only | Print | Product List | Glossary On
Versions: 1 2 3 4 5 6 7 8 9 10 11 12 13 14 15 16 17 18 19 20 21 22 23 24 25 26 27 28 29 30 31 32 33 34 35 36 37 38 39 40 41 42 43 44 45 46 47 48 49 50
000
ASUS43 KMKX 190200
RWRWI

WISCONSIN REGIONAL WEATHER ROUNDUP
NATIONAL WEATHER SERVICE MILWAUKEE/SULLIVAN WI
900 PM CDT SAT APR 18 2015

NOTE: "FAIR" INDICATES FEW OR NO CLOUDS BELOW 12,000 FEET WITH NO
SIGNIFICANT WEATHER AND/OR OBSTRUCTIONS TO VISIBILITY.

WIZ001-002-006>008-014>016-023>028-190300-
NORTHWEST WISCONSIN

CITY           SKY/WX    TMP DP  RH WIND       PRES   REMARKS
SUPERIOR ARPT  MOCLDY    37  32  82 E14G23    30.07F WCI  28
ASHLAND        MOCLDY    33  30  88 N5        30.06F WCI  29
HAYWARD        CLOUDY    49  33  54 NE7       30.01F
SIREN          CLOUDY    55  34  45 NE6       29.98S
CUMBERLAND     CLOUDY    55  32  41 E7        29.98S
RICE LAKE      CLOUDY    59  30  34 E10       29.99F
CHETEK         CLOUDY    59  28  30 E14G22    29.99S
LADYSMITH      CLOUDY    58  21  24 E7        30.04S
EAU CLAIRE     NOT AVBL
MENOMONIE      CLOUDY    59  29  31 E12       29.98R
NEW RICHMOND   CLOUDY    61  29  29 E14G21    29.94S
OSCEOLA        CLOUDY    62  33  33 E13       29.96S
$$

WIZ003>005-009-010-017-018-190300-
NORTH CENTRAL WISCONSIN

CITY           SKY/WX    TMP DP  RH WIND       PRES   REMARKS
MANITOWISH WTR MOCLDY    54  24  31 SE5       30.06S
ARBOR VITAE    MOCLDY    57  20  23 SE9       30.07S
WOODRUFF       MOCLDY    57  20  23 SE9       30.07S
RHINELANDER    MOCLDY    49  13  23 E8        30.09S
EAGLE RIVER    MOCLDY    53  10  18 SE7       30.09S
LAND O LAKES   PTCLDY    51  22  32 SE6       30.10S
PHILLIPS       CLOUDY    55  20  25 SE8       30.04S
TOMAHAWK       CLOUDY    52  13  20 CALM      30.07F
MEDFORD        MOCLDY    52  21  29 E8        30.04F
MERRILL        CLOUDY    53  16  23 E6        30.07S
$$

WIZ029-030-035-036-043>047-190300-
CENTRAL WISCONSIN

CITY           SKY/WX    TMP DP  RH WIND       PRES   REMARKS
WAUSAU         MOCLDY    52  16  24 E14       30.05F
MOSINEE        CLEAR     50  16  25 E10       30.07S
MARSHFIELD     PTCLDY    53  19  26 E13       30.04S
STEVENS POINT  PTCLDY    49  18  29 E8        30.07S
WAUPACA        PTCLDY    54  19  25 NE8       30.09S
WAUTOMA        NOT AVBL
WISC RAPIDS    PTCLDY    53  17  24 E13       30.05S
CAMP DOUGLAS   NOT AVBL
$$

WIZ011>013-019>022-031-037>040-048>050-190300-
NORTHEAST WISCONSIN

CITY           SKY/WX    TMP DP  RH WIND       PRES   REMARKS
ANTIGO         MOCLDY    48  18  30 E7        30.09F
SHAWANO        FAIR      52  28  40 E8        30.11S
OCONTO         CLEAR     48  29  46 NE5       30.12S
STURGEON BAY   CLEAR     48  25  40 E8        30.14S
GREEN BAY      PTCLDY    46  33  60 NE12      30.10F
MANITOWOC      NOT AVBL
APPLETON       PTCLDY    48  27  43 NE10      30.09S
CLINTONVILLE   PTCLDY    50  18  27 E7        30.10R
OSHKOSH        CLEAR     50  30  46 NE10      30.07S
$$

WIZ032>034-041-042-053>061-190300-
SOUTHWEST WISCONSIN

CITY           SKY/WX    TMP DP  RH WIND       PRES   REMARKS
LA CROSSE      MOCLDY    63  28  26 SE12G18   29.96S
SPARTA         PTCLDY    58  22  24 E9G16     30.00S
VIROQUA        MOCLDY    58  30  35 E15       29.97S
BOSCOBEL       MOCLDY    65  28  24 E9        29.96S
PRAIRIE DU CHI CLOUDY    66  30  26 E13       29.93R
PLATTEVILLE    CLOUDY    61  33  35 E12       29.95S
$$

WIZ056-057-062-063-064-067-068-190300-
SOUTH CENTRAL WISCONSIN

CITY           SKY/WX    TMP DP  RH WIND       PRES   REMARKS
REEDSBURG      PTCLDY    57  28  33 E9        30.00S
BARABOO/DELLS  PTCLDY    56  25  30 E10       30.01S
LONE ROCK      NOT AVBL
MINERAL POINT  MOCLDY    61  27  27 E12       29.97S
MADISON        MOCLDY    56  32  40 E9        30.01S
MIDDLETON      CLEAR     59  31  34 E9        30.01S
WATERTOWN      CLEAR     51  30  45 NE12      30.03R
MONROE         MOCLDY    59  36  41 E13       29.99R
JANESVILLE     CLEAR     55  27  33 E10       30.01R
$$

WIZ051-052-058>065-066-070>072-190300-
SOUTHEAST WISCONSIN

CITY           SKY/WX    TMP DP  RH WIND       PRES   REMARKS
MILWAUKEE      PTCLDY    42  32  67 N14       30.08R
WAUKESHA       PTCLDY    48  28  46 NE12      30.06R
MILWAUKEE/TIMM CLEAR     48  28  46 NE9       30.07R
RACINE         CLEAR     41  33  73 N14       30.08R
BURLINGTON     CLEAR     46  30  53 E8        30.05R
KENOSHA        CLEAR     45  33  63 NE9       30.05R
FOND DU LAC    CLEAR     50  26  39 NE12      30.06S
SHEBOYGAN      CLEAR     46  29  51 NE14      30.07S
WEST BEND      CLEAR     46  27  46 NE7       30.06S
JUNEAU         CLEAR     51  32  48 NE10G17   30.04F
$$

LSZ147-162-190300-
LAKE SUPERIOR

STATION/POSITION TIME  TEMP    WIND        PRES    WAVE
                       AIR SEA DIR/SP/G            HT/PER
                 (UTC) (F)     (DEG/KT/KT) (MB)    (FT/S)
DEVILS ISLAND    0100   37      60/ 20/ 22 1019.3F
PORT WING        0100   37      40/ 16/ 19 1018.6
SAXON HARBOR     0100   40        CALM     1017.6F
$$

LMZ867-665-643>646-190300-
LAKE MICHIGAN

STATION/POSITION TIME  TEMP    WIND        PRES    WAVE
                       AIR SEA DIR/SP/G            HT/PER
                 (UTC) (F)     (DEG/KT/KT) (MB)    (FT/S)
CHAMBERS ISLAND  0100   42      20/  9/ 13 1020.3S
NORTHPORT PIER   0100   50      50/ 10/ 14 1020.3S
SISTER BAY       0017   53      20/  6/ 11   N/A
KEWAUNEE LAKESHO 0100   45      30/ 14/ 18 1018.8F
SHEBOYGAN LAKESH 0100   43      10/ 19/ 21 1019.0F
PORT WASHINGTON  0100   49      20/  7/ 12 1018.3F
MILWAUKEE LAKESH 0100   44      10/ 19/ 23   N/A
KENOSHA   LAKESH 0100   44      10/ 21/ 25 1016.9S
$$

TC  - TEMPERATURE IN CELSIUS
VSB - VISIBILITY IN STATUTE MILES
WCI - WIND CHILL INDEX
HX  - HEAT INDEX



USA.gov is the U.S. government's official web portal to all federal, state and local government web resources and services.